Location: Navalespino
(40.5894°N, 4.2660°W)
Time: 01:28:19
(UTC+00:00)

Cosmos 1503 Rocket - Pass Details

Date: 18 April 2024
Orbit: 750 x 789 km, 74.0° (Epoch: 18 May)

Event Time Altitude Azimuth Distance (km) Brightness Sun altitude
Rises 20:33:09 0° 342° (NNW) 3,293 8.1 -17.0°
Reaches altitude 10° 20:35:34 10° 345° (NNW) 2,360 7.2 -17.4°
Maximum altitude 20:40:57 72° 69° (ENE) 831 4.0 -18.2°
Enters shadow 20:43:29 32° 147° (SSE) 1,335 4.7 -18.6°
